This is the latest recevied weather packets stored in our database for station/object K5OLV. If no packets are shown the sender has not sent any weather packets the latest 10 day(s).
| Time | Temp. | Humidity | Pressure | Rain* | Wind** | Luminosity | Snow |
|---|---|---|---|---|---|---|---|
| 1778122407 | 16.11° C | 99% | 1010.2 hPa | 3.05 mm | - | 0 W/m² | - |
| 1778122104 | 16.11° C | 99% | 1010 hPa | 10.16 mm | - | 0 W/m² | - |
| 1778121801 | 16.11° C | 99% | 1010.7 hPa | 10.67 mm | - | 0 W/m² | - |
| 1778121497 | 16.11° C | 99% | 1011.2 hPa | 3.05 mm | - | 0 W/m² | - |
| 1778121194 | 16.11° C | 99% | 1011.2 hPa | 1.27 mm | - | 0 W/m² | - |
| 1778120891 | 16.11° C | 99% | 1010.4 hPa | 1.27 mm | - | 0 W/m² | - |
| 1778120587 | 16.11° C | 99% | 1010.4 hPa | 1.27 mm | - | 0 W/m² | - |
| 1778120283 | 16.11° C | 99% | 1010.5 hPa | 0 mm | - | 0 W/m² | - |
| 1778119979 | 16.11° C | 99% | 1010.5 hPa | 0 mm | - | 0 W/m² | - |
| 1778119677 | 16.11° C | 99% | 1010.2 hPa | 0 mm | - | 0 W/m² | - |
| 1778119374 | 16.11° C | 99% | 1010.4 hPa | 0 mm | - | 0 W/m² | - |
| 1778119071 | 16.11° C | 99% | 1010.6 hPa | 0 mm | - | 0 W/m² | - |
| 1778118768 | 16.11° C | 99% | 1010.3 hPa | 0 mm | - | 0 W/m² | - |
| 1778118465 | 16.11° C | 99% | 1010.3 hPa | 0 mm | - | 0 W/m² | - |
| 1778118162 | 16.11° C | 99% | 1010.3 hPa | 0 mm | - | 0 W/m² | - |
| 1778117858 | 16.11° C | 99% | 1010.4 hPa | 0 mm | - | 0 W/m² | - |
| 1778117556 | 16.11° C | 99% | 1010.4 hPa | 0 mm | - | 0 W/m² | - |
| 1778117253 | 16.11° C | 99% | 1010.7 hPa | 0 mm | - | 0 W/m² | - |
| 1778116948 | 16.11° C | 99% | 1010.8 hPa | 0 mm | - | 0 W/m² | - |
| 1778116646 | 16.11° C | 99% | 1010.9 hPa | 0 mm | - | 0 W/m² | - |
| 1778116342 | 16.11° C | 99% | 1010.8 hPa | 0 mm | - | 0 W/m² | - |
| 1778116042 | 16.11° C | 99% | 1010.4 hPa | 0 mm | - | 0 W/m² | - |
| 1778115738 | 16.11° C | 99% | 1010.4 hPa | 0 mm | - | 0 W/m² | - |
| 1778115436 | 16.11° C | 99% | 1010.6 hPa | 0 mm | - | 0 W/m² | - |
| 1778115132 | 16.11° C | 99% | 1010 hPa | 0 mm | - | 0 W/m² | - |
* Rain latest hour (hover to see other rain measurements)
** Current wind speed in m/s (hover to see current wind gust speed)